Showing default

TIROS 1, 29

Orbit data source: Space-Track

TIROS 1, 29 is a payload satellite owned by GSFC (US) in LEO that was launched on Fri, 01 Apr 1960 UTC via a THOR ABLE II launch vehicle from the Air Force Eastern Test Range (AFETR). Payload-class satellites include a variety of spacecraft equipped with specific instruments for various scientific and technological missions. These include communications satellites like Starlink; space stations such as the ISS; scientific satellites like the Hubble; Earth observation satellites from companies like Planet Labs, Umbra, and HawkEye 360; GPS; miniature CubeSats for education and research; and military/defense satellites.

Loading next visibility...
Identifier
29, 1960-002B
Orbit
LEO
Country
Flag of USUS
Related business
Manufacturer
RCA/East Windsor
Mission
Non-operational spacecraft
Bus & Motor
TIROS, Unknown motor
Mass
122 kg wet, 122 kg dry
Launch date (UTC)
1960-04-01 (66 years ago)
Launch vehicle
THOR ABLE II
Launch site
Air Force Eastern Test Range (AFETR)
Object type
Payload
Rocket body
Debris
Shape & HBR
Unknown
Radar Cross Section
Medium (>0.1 m² and <1 m²)

Expand to show TLE details & history
Last TLE update: 11 hours ago

TLE from 11 hours ago
0 TIROS 1
1    29U 60002B   26012.77982093  .00000604  00000-0  11059-3 0  9994
2    29  48.3791  43.0783 0022833 318.2704  41.6467 14.78493074519137
Epoch: 2026-01-12T18:42Z
TLE epoch observation values (Epoch: 2026-01-12T18:42:56.528Z)
Latitude
-0.00005°
Longitude
10.07111°
Altitude
622.505 km
Speed
7.555 km/s
True Right ascension
02h 52m 18s
True Declination
0° 00' 00"
Sunlit
Object was in daylight at epoch
Visualization orbit readout
Latitude
Unknown
Longitude
Unknown
Altitude
Unknown
Speed
Unknown
Apparent Right ascension
Unknown
Apparent Declination
Unknown
Sunlit
N/A
Visualization observer readout
Local Sidereal Time
06:33:17
Azimuth
Unknown
Elevation
Unknown
Doppler factor
Unknown
Orbital elements
Apogee altitude
651.118 km
Perigee altitude
619.092 km
Semi-major axis
7,013.242 km
Eccentricity
0.00228
Inclination
48.3791°
RAAN
43.0783°
Arg. of periapsis
318.2704°
True anomaly
41.82094°
Mean anomaly
41.6467°
Eccentric anomaly
41.73379°
Mean motion
3.69543 °/min
Orbital period
97.42 mins
BSTAR
0.00011059
Loading maneuver chart data...
Computing Atmospheric mass density...
Loading historical data...
Loading historical data...
Loading historical data...
Loading historical data...
Loading historical data...
Loading historical data...
Loading historical data...
Other satellites on launch #2 in the year 1960 (1960-04-01 UTC)

Documentation

Showing up to 5 results
|